AMAZONIA 1 (47699 NORAD) Tracking and Keplerian Element Data

This shows tracking and keplerian element data for the satellite.

Feedback or suggestion? Click here.




ElementValue
Catalog47699
NameAMAZONIA 1
Epoch Orbit580
Epoch Day99.44071364
Epoch Year2021
RAAN174.6634
Inclination98.4991
Eccentricity0.0001366
Argument of Perigee134.4379
Mean Anonmoly225.6942
Mean Motion14.40797755
Decay Rate-4.4E-07
L11 47699U 21015A 21099.44071364 -.00000044 00000-0 00000+0 0 9992
L22 47699 98.4991 174.6634 0001366 134.4379 225.6942 14.40797755 5807

Live tracking and technical data element details for AMAZONIA 1 (NORAD 47699). AMAZONIA 1 can be tracked NOW for your location showing map with azimuth and elevation plus other details from your city location.

Track the satellite on the map from your city or location and see movement details for azimuth, elevation, latitude, longitude, range, height, and movement on the map or in text.







IsCatalogInMostPopularTable: catalog: 47699, numindb: 8
Update: records affected: 1



GetName: 47699 AMAZONIA 1

Hit Count: updated at: Sat, 10 Apr 2021 19:26:39 GMT